User: anonymous   Login
Location: Unspecified
(0.0000°N, 0.0000°E)
Time: 14:55:07
(UTC+00:00)
Language:

ISAT - Orbit

View from above orbital plane
View from above orbital plane
View from above satellite
View from above satellite

Ground track
Ground track

The orbit data is extracted from the following two-line orbital elements,

1 43879U 18111D   20228.41482223  .00000496  00000-0  48968-4 0  9991
2 43879  97.6970 134.8857 0014355  51.4870 308.7636 14.96275283 87296
Epoch (UTC): 15 August 2020 09:57:20
Eccentricity: 0.0014355
inclination: 97.6970°
perigee height: 568 km
apogee height: 588 km
right ascension of ascending node: 134.8857°
argument of perigee: 51.4870°
revolutions per day: 14.96275283
mean anomaly at epoch: 308.7636°
orbit number at epoch: 8729

The dashed part of the orbit path shows where the satellite is in the earth's shadow,  

DLR